Location: La Ferrière
(46.6564°N, 0.0767°W)
Time: 09:40:50
(UTC+00:00)

Daily predictions for brighter satellites

Satellite Brightness Start Highest point End
(mag) Time Altitude Azimuth Time Altitude Azimuth Time Altitude Azimuth
Cosmos 1536 Rocket 3.8 20:27:05 10° S 20:31:17 51° E 20:35:31 10° NNE
Cosmos 1703 3.8 20:28:53 10° SSE 20:32:27 38° E 20:36:03 10° NNE
Cosmos 1741 Rocket 4.1 20:28:36 10° NNW 20:33:56 74° ENE 20:39:16 10° SSE
CARTOSAT-1 3.9 20:30:14 10° SSE 20:34:24 51° ENE 20:38:36 10° N
USA 245 3.9 20:32:43 10° SE 20:36:14 35° ENE 20:39:08 10° N
Ariane Rocket 3.0 20:33:21 10° SSE 20:38:26 79° ENE 20:43:34 10° NNW
PSLV R/B 4.1 20:37:58 10° NNE 20:42:09 84° WNW 20:46:20 10° SSW
CZ-4B R/B 0.9 20:43:23 10° NNE 20:46:16 82° ESE 20:49:09 10° SSW
ARIANE 5 R/B 4.3 20:44:49 10° ESE 20:48:05 21° ENE 20:51:21 10° NNE
Terra 3.0 20:44:21 10° SE 20:48:26 29° ENE 20:52:31 10° N
ATLAS 2AS CENTAUR R/B 3.9 20:42:37 10° NW 20:48:53 36° WSW 20:54:48 10° S
SPOT 3 Rocket 3.7 20:44:55 10° SSE 20:50:04 66° ENE 20:55:16 10° N
SPOT 5 3.3 20:47:02 10° SE 20:51:05 39° ENE 20:55:08 10° N
USA 276 3.2 20:49:26 10° WNW 20:52:21 41° N 20:55:15 10° ENE
RESURS DK-1 2.8 20:48:25 10° NW 20:52:30 59° WSW 20:56:34 10° SSE
FALCON 9 DEB 4.4 20:50:50 10° NW 20:53:53 34° NNE 20:56:54 10° E
Cosmos 1271 Rocket 4.2 20:51:14 10° NNW 20:54:54 37° W 20:58:31 10° SSW
Cosmos 1455 3.5 20:51:36 10° NNW 20:55:13 40° W 20:58:48 10° SSW
Cosmos 1726 Rocket 4.5 20:53:50 10° N 20:57:46 33° ENE 21:01:15 12° SE
Cosmos 1850 Rocket 4.3 20:54:24 10° NNW 20:59:34 66° WSW 21:04:40 10° S
Cosmos 1331 Rocket 4.0 20:56:54 10° SSW 21:02:11 75° ESE 21:07:29 10° NNE
IRAS Rocket 4.2 20:57:16 10° NNE 21:02:53 77° ESE 21:08:24 10° SSW
Cosmos 2082 Rocket 2.8 20:58:06 10° S 21:03:19 38° ESE 21:08:32 10° NE
Cosmos 2074 Rocket 4.1 20:58:00 10° N 21:04:19 88° WSW 21:10:32 10° S
Cosmos 2360 4.3 21:00:52 10° NNW 21:06:38 86° WSW 21:11:58 12° SSE
Helios 1A Rocket 3.3 21:04:55 13° SE 21:08:23 52° ENE 21:12:24 10° N
Cosmos 1328 4.3 21:05:03 11° SSE 21:08:43 43° E 21:12:31 10° NNE
Spot 2 Rocket 3.6 21:04:02 12° SSE 21:08:47 64° ENE 21:13:52 10° N
Cosmos 2084 Rocket 3.2 21:06:43 10° NW 21:10:38 88° SW 21:13:53 16° SE
Lacrosse 5 4.2 21:11:41 10° W 21:13:51 13° WSW 21:16:02 10° SW
Nadezhda 1 Rocket 4.0 21:08:02 10° S 21:14:02 68° E 21:20:04 10° NNE
GEOS 3 Rocket 4.3 21:09:16 10° SSE 21:14:06 46° WSW 21:19:01 10° NW
Cosmos 1295 Rocket 4.5 21:11:57 10° N 21:18:13 80° E 21:23:58 12° SSE
X-37B 1.7 21:22:13 10° W 21:24:33 24° SSW 21:25:27 20° S
ERS-1 Rocket 3.0 21:22:06 15° SSE 21:26:22 79° ENE 21:31:25 10° NNW
Cosmos 1892 3.7 21:26:26 19° SE 21:28:17 29° E 21:31:35 10° NNE
Meteor 1-21 Rocket 4.3 21:25:12 10° SSW 21:30:49 82° W 21:36:35 10° N
Cosmos 1302 Rocket 3.9 21:29:08 10° S 21:34:17 70° ESE 21:39:28 10° NNE
Cosmos 2228 3.7 21:31:18 10° NNW 21:35:24 49° W 21:39:22 11° SSW
Cosmos 192 4.3 21:32:39 10° SSW 21:37:32 86° ESE 21:42:28 10° NNE
Cosmos 2154 Rocket 4.2 21:32:29 10° NNW 21:38:40 70° W 21:44:32 11° S
Cosmos 1892 Rocket 3.5 21:38:01 16° S 21:41:26 68° E 21:45:47 10° NNE
Cosmos 968 Rocket 3.5 21:37:36 10° NNW 21:42:50 88° WSW 21:46:30 20° SSE
Cosmos 1697 Rocket 3.5 21:40:01 10° NW 21:45:17 43° WSW 21:49:50 13° S
Cosmos 1980 Rocket 2.2 21:40:26 10° NNW 21:46:10 81° WSW 21:50:07 20° SSE
SL-16 R/B 3.3 21:43:36 10° NNW 21:48:46 34° NE 21:52:57 15° ESE
Cosmos 1408 2.4 21:48:44 26° S 21:50:30 64° E 21:53:55 10° NNE
Cosmos 2058 Rocket 3.1 21:46:18 10° N 21:50:44 69° E 21:53:20 24° SSE
ATLAS 5 CENTAUR R/B 1.4 21:50:51 19° S 21:53:14 47° ESE 21:57:10 10° NE
SL-8 Rocket 4.1 21:47:43 10° N 21:53:56 64° ENE 21:58:01 22° SSE
Resurs 01 Rocket 4.3 21:51:53 10° WSW 21:54:05 13° W 21:56:18 10° WNW
Cosmos 2369 4.0 21:48:54 10° NNW 21:54:34 63° WSW 21:58:31 20° S
CZ-2C R/B 3.7 21:50:16 10° NNE 21:54:49 83° WNW 21:58:47 13° SSW
USA 267 3.9 21:49:56 10° ENE 21:55:35 30° SE 21:59:30 17° S
SJ 16-02 3.1 21:57:30 10° N 22:01:01 23° ENE 22:03:35 14° E
SL-4 R/B 4.1 22:04:44 10° E 22:04:44 10° E 22:04:47 10° E
In-Cosmos 22 Rocket 4.3 21:59:04 22° SSE 22:02:36 58° E 22:07:55 10° NNE
COSMOS 2406 3.9 21:57:55 10° SW 22:03:36 58° WNW 22:09:18 10° NNE
Cosmos 1833 Rocket 4.4 22:04:05 10° WSW 22:09:09 34° NW 22:14:16 10° NNE
Cosmos 1825 2.5 22:08:00 34° SE 22:09:12 48° E 22:12:50 10° NNE
Cosmos 1867 3.9 22:07:00 10° NW 22:12:19 54° WSW 22:15:18 25° S
Cosmos 2366 rocket 4.0 22:07:59 10° N 22:14:21 76° E 22:18:15 25° SSE
Cosmos 1869 3.4 22:13:07 10° N 22:17:01 63° E 22:18:25 36° SSE
Cosmos 2218 Rocket 4.0 22:14:22 10° N 22:20:50 84° E 22:24:43 26° S
Cosmos 2322 Rocket 3.0 22:17:31 10° NNW 22:22:57 44° NE 22:26:28 21° ESE
GP-B 3.1 22:19:46 10° N 22:24:13 84° W 22:26:26 29° S
ARIANE 5 R/B 3.3 22:21:46 23° SSW 22:24:14 47° W 22:28:31 10° NNW
Meteor 1-27 4.1 22:18:51 10° N 22:24:26 87° E 22:27:27 29° SSE
Terra 2.9 22:22:57 17° SSW 22:26:04 36° W 22:30:29 10° NNW
USA 276 1.8 22:25:15 10° WNW 22:28:17 90° WNW 22:28:42 63° ESE
SAR-Lupe-4 3.4 22:24:54 10° NNE 22:28:30 79° ESE 22:29:35 43° S
FALCON 9 DEB 3.0 22:27:03 10° WNW 22:30:16 58° SW 22:30:31 55° SSW
USA 234 4.1 22:24:20 10° E 22:30:37 50° NNE 22:36:54 10° NW
Cosmos 1959 Rocket 4.4 22:24:46 10° N 22:30:54 86° W 22:34:26 27° S
BREEZE-M DEB (TANK) 3.7 22:32:56 10° WNW 22:35:50 68° NNE 22:45:52 10° E
Cosmos 2278 4.1 22:30:52 10° NW 22:36:28 56° WSW 22:39:18 28° S
Cosmos 1633 2.6 22:39:00 50° SE 22:39:24 54° E 22:42:48 10° NNE
Cosmos 1992 Rocket 4.2 22:37:42 16° SSW 22:41:50 71° WNW 22:47:06 10° NNE
Okean 1-7 Rocket 3.8 22:40:57 28° SSW 22:43:13 69° W 22:47:44 10° N
Cosmos 1758 Rocket 3.8 22:42:24 39° SE 22:43:36 52° E 22:47:53 10° NNE
Cosmos 2333 Rocket 3.8 22:38:41 10° N 22:43:39 29° NE 22:48:05 12° ESE
Cosmos 2082 Rocket 3.5 22:42:03 10° WSW 22:47:23 39° NW 22:52:44 10° NNE
Cosmos 1486 Rocket 4.3 22:42:41 10° NNW 22:47:48 56° WSW 22:50:04 31° S
ASTEX 1 4.0 22:43:13 10° N 22:48:06 54° W 22:51:09 22° SSW
Cosmos 1606 3.2 22:49:50 10° N 22:53:35 48° ENE 22:54:21 41° ESE
Cosmos-2242 3.0 22:49:45 10° N 22:54:01 70° E 22:55:10 45° SSE
Cosmos 1812 Rocket 3.5 22:50:17 10° N 22:54:46 89° ESE 22:56:09 44° S
Cosmos 2360 Rocket 2.7 22:51:55 10° NNW 22:57:29 52° ENE 23:00:32 26° ESE
ADEOS Rocket 3.8 22:53:13 25° SE 22:57:41 61° ENE 23:05:20 10° N
Cosmos 1340 Rocket 4.0 22:58:42 27° E 22:58:59 27° E 23:02:22 10° NNE
Gbstr 26 Del rocket 3.1 22:58:59 47° SSE 22:59:22 49° SE 23:04:02 10° ENE
Cosmos 1602 Rocket 3.7 23:05:35 38° SSW 23:07:08 67° W 23:11:27 10° N
Cosmos 1821 Rocket 3.9 23:02:17 10° N 23:08:32 87° W 23:11:22 35° S
Cosmos 44 3.5 23:14:09 41° SE 23:14:27 41° ESE 23:18:41 10° NE
Cosmos 1354 Rocket 4.2 23:12:31 10° NNW 23:17:46 63° WSW 23:19:33 39° S
Cosmos 2237 4.2 23:14:34 10° NNW 23:20:19 76° WSW 23:22:29 39° S
ALOS 2 2.5 23:21:36 50° SSE 23:22:43 84° ENE 23:27:08 10° NNW
ERS-2 3.3 23:19:57 10° NE 23:22:56 29° E 23:22:56 29° E
Spot 4 4.0 23:21:49 42° SSW 23:23:17 63° WSW 23:28:05 10° NNW
CENTAUR R/B 3.9 23:22:31 18° ESE 23:23:20 19° ESE 23:27:38 10° ENE
Cosmos 1980 Rocket 4.4 23:26:53 10° WNW 23:29:11 13° W 23:31:28 10° WSW
COSMOS 2428 4.1 23:25:02 10° NNW 23:30:09 32° NE 23:34:37 13° ESE
Cosmos 2058 2.8 23:29:58 58° S 23:30:46 88° E 23:34:58 10° N
Nadezhda 3 Rocket 4.0 23:28:02 33° SSW 23:30:59 78° W 23:37:11 10° N
Cosmos 1777 Rocket 4.0 23:26:09 10° NNW 23:31:27 73° WSW 23:33:07 43° S
H-2A R/B 3.4 23:27:40 10° NNE 23:31:54 89° ESE 23:32:48 55° SSW
SL-16 R/B 2.8 23:27:38 10° NW 23:32:59 44° WSW 23:34:48 33° SSW
Cosmos 2219 Rocket 3.0 23:27:46 10° NNW 23:33:14 45° NE 23:36:40 21° ESE
Cosmos 1953 Rocket 3.6 23:33:03 51° SSE 23:33:56 65° E 23:38:18 10° NNE
ATLAS 5 CENTAUR R/B 3.6 23:34:48 10° W 23:38:00 24° NNW 23:41:35 10° NNE
USA 267 3.2 23:32:30 10° NE 23:39:05 88° NNW 23:45:39 10° WSW
SJ 16-02 1.9 23:35:34 10° NNW 23:39:46 43° WSW 23:40:31 39° SW
SL-4 R/B 1.7 23:40:05 43° W 23:41:05 73° NNW 23:44:45 10° ENE
Meteor 2-2 Rocket 4.3 23:35:44 10° NNW 23:41:47 82° W 23:44:11 39° S
Cosmos 1825 Rocket 3.7 23:41:10 47° SW 23:42:15 66° W 23:46:36 10° N
Cosmos 2322 4.4 23:36:54 10° NNW 23:42:24 48° ENE 23:45:44 23° ESE
Cosmos 2221 2.6 23:46:57 10° N 23:51:19 71° E 23:52:14 52° SE
PSLV R/B 4.0 23:49:56 10° NNE 23:54:35 55° E 23:55:36 45° SE
